Location: Unspecified
(0.0000°N, 0.0000°E)
Time: 16:14:21
(UTC+00:00)

Vanguard 2 Rocket - All Passes

Search period start: 13 December 2018 00:00
Search period end: 23 December 2018 00:00
Orbit: 554 x 3327 km, 32.9° (Epoch: 12 December)

Date Brightness Start Highest point End Pass type
(mag) Time Alt. Az. Time Alt. Az. Time Alt. Az.
13 Dec - 02:00:18 10° SW 02:09:40 58° SSE 02:15:03 10° ENE night (unlit)
13 Dec - 04:18:35 10° W 04:22:32 18° NW 04:25:39 10° N visible
13 Dec - 11:08:33 10° NNE 11:12:06 13° NE 11:16:22 10° ENE daylight
13 Dec - 13:16:51 10° NW 13:26:59 56° NE 13:43:59 10° ESE daylight
13 Dec - 15:30:22 10° WNW 15:44:04 62° SSW 16:04:02 10° SE daylight
13 Dec - 17:49:51 10° WSW 18:04:51 30° SSW 18:21:05 10° SSE visible
13 Dec - 20:17:39 10° SW 20:28:43 17° S 20:38:21 10° SSE visible
13 Dec - 22:41:39 10° SSW 22:51:25 19° S 22:58:39 10° SE visible
14 Dec - 00:58:53 10° SW 01:09:31 41° SSE 01:15:46 10° E visible
14 Dec - 03:16:23 10° WSW 03:23:27 41° NW 03:27:59 10° NNE night (unlit)
14 Dec - 12:18:22 10° NNW 12:26:35 36° NE 12:39:56 10° ESE daylight
14 Dec - 14:30:19 10° WNW 14:42:15 79° SW 15:01:42 10° SE daylight
14 Dec - 16:47:10 10° W 17:01:43 37° SSW 17:19:38 10° SE daylight
14 Dec - 19:12:04 10° SW 19:24:53 20° SSW 19:36:55 10° SSE visible
14 Dec - 21:38:29 10° SSW 21:48:55 18° S 21:57:09 10° SE visible
14 Dec - 23:57:11 10° SW 00:08:47 32° SSE 00:15:59 10° E visible
15 Dec - 02:14:33 10° WSW 02:24:11 78° NW 02:29:38 10° NE night (unlit)
15 Dec - 11:20:38 10° N 11:26:33 21° NE 11:35:03 10° E daylight
15 Dec - 13:30:55 10° NW 13:41:05 79° NE 13:58:52 10° ESE daylight
15 Dec - 15:45:42 10° W 15:59:02 46° SSW 16:17:49 10° SE daylight
15 Dec - 18:07:21 10° WSW 18:21:02 23° SSW 18:35:20 10° SSE visible
15 Dec - 20:34:26 10° SW 20:45:40 17° S 20:55:09 10° SE visible
15 Dec - 22:55:07 10° SSW 23:07:23 26° SSE 23:15:36 10° ESE visible
16 Dec - 01:12:42 10° SW 01:24:24 68° SSE 01:30:48 10° ENE visible
16 Dec - 03:32:18 10° W 03:37:31 21° NW 03:41:20 10° N night (unlit)
16 Dec - 12:32:05 10° NW 12:40:37 55° NE 12:55:34 10° ESE daylight
16 Dec - 14:45:10 10° WNW 14:56:56 58° SSW 15:15:39 10° SE daylight
16 Dec - 17:03:54 10° WSW 17:17:29 28° SSW 17:33:32 10° SSE daylight
16 Dec - 19:29:47 10° SW 19:41:51 18° S 19:52:52 10° SE visible
16 Dec - 21:52:37 10° SSW 22:05:17 23° SSE 22:14:31 10° ESE visible
17 Dec - 00:10:43 10° SW 00:24:00 49° SSE 00:31:32 10° ENE visible
17 Dec - 02:29:30 10° WSW 02:38:21 42° NW 02:43:39 10° NNE night (unlit)
17 Dec - 11:33:49 10° NNW 11:40:39 34° NE 11:51:48 10° E daylight
17 Dec - 13:45:23 10° WNW 13:55:29 75° SW 14:13:10 10° SE daylight
17 Dec - 16:01:43 10° W 16:14:27 34° SSW 16:31:33 10° SE daylight
17 Dec - 18:25:12 10° SW 18:37:46 20° S 18:50:25 10° SSE visible
17 Dec - 20:49:38 10° SSW 21:02:26 20° S 21:12:38 10° SE visible
17 Dec - 23:08:36 10° SW 23:22:56 38° SSE 23:31:43 10° E visible
18 Dec - 01:27:01 10° WSW 01:38:51 74° NW 01:45:18 10° NE visible
18 Dec - 10:36:25 10° N 10:41:00 18° NE 10:47:17 10° E daylight
18 Dec - 12:46:12 10° NW 12:54:44 82° NE 13:10:25 10° ESE daylight
18 Dec - 15:00:35 10° W 15:12:02 42° SSW 15:29:22 10° SE daylight
18 Dec - 17:21:20 10° WSW 17:33:50 22° SSW 17:47:56 10° SSE daylight
18 Dec - 19:46:13 10° SSW 19:58:52 19° S 20:09:59 10° SE visible
18 Dec - 22:06:18 10° SW 22:21:12 31° SSE 22:31:13 10° E visible
19 Dec - 00:24:38 10° SW 00:38:48 76° SSE 00:46:27 10° ENE visible
19 Dec - 02:45:26 10° W 02:52:21 23° NW 02:57:05 10° N night (unlit)
19 Dec - 11:47:32 10° NW 11:54:39 54° NE 12:07:24 10° ESE daylight
19 Dec - 14:00:19 10° WNW 14:10:17 52° SSW 14:27:03 10° SE daylight
19 Dec - 16:18:30 10° WSW 16:30:24 26° SSW 16:45:28 10° SSE daylight
19 Dec - 18:42:33 10° SW 18:54:49 19° S 19:06:45 10° SE visible
19 Dec - 21:03:52 10° SSW 21:18:44 26° SSE 21:29:53 10° ESE visible
19 Dec - 23:22:15 10° SW 23:38:04 56° SSE 23:47:06 10° ENE visible
20 Dec - 01:42:03 10° WSW 01:52:57 44° NW 01:59:17 10° NNE night (unlit)
20 Dec - 10:49:25 10° NNW 10:55:05 31° NE 11:04:04 10° E daylight
20 Dec - 13:00:43 10° WNW 13:09:12 69° SSW 13:24:39 10° SE daylight
20 Dec - 15:16:44 10° WSW 15:27:36 30° SSW 15:43:02 10° SE daylight
20 Dec - 17:38:58 10° SW 17:50:41 19° S 18:03:18 10° SE daylight
20 Dec - 20:01:17 10° SSW 20:15:35 23° SSE 20:27:34 10° ESE visible
20 Dec - 22:19:55 10° SW 22:36:40 44° SSE 22:47:08 10° E visible
21 Dec - 00:39:02 10° WSW 00:53:10 71° NW 01:00:51 10° NE visible
21 Dec - 03:03:08 10° WNW 03:06:30 13° NW 03:09:19 10° NNW night (unlit)
21 Dec - 09:52:21 10° N 09:55:43 15° NE 09:59:59 10° ENE daylight
21 Dec - 12:01:40 10° NW 12:08:50 85° NE 12:22:10 10° SE daylight
21 Dec - 14:15:52 10° W 14:25:31 36° SSW 14:40:42 10° SE daylight
21 Dec - 16:35:54 10° SW 16:46:51 20° S 16:59:58 10° SSE daylight
21 Dec - 18:58:37 10° SSW 19:11:50 20° S 19:24:13 10° SE visible
21 Dec - 21:17:39 10° SW 21:34:34 36° SSE 21:46:26 10° E visible
21 Dec - 23:36:14 10° SW 23:52:46 82° SE 00:01:54 10° ENE visible
22 Dec - 01:58:01 10° W 02:06:57 27° NW 02:12:47 10° NNE night (unlit)
22 Dec - 11:03:07 10° NW 11:09:06 53° NE 11:19:37 10° ESE daylight
22 Dec - 13:15:47 10° W 13:24:07 46° SSW 13:38:28 10° SE daylight
22 Dec - 15:33:36 10° WSW 15:43:40 23° SSW 15:56:55 10° SSE daylight
22 Dec - 17:55:57 10° SW 18:07:45 19° S 18:20:04 10° SE visible
22 Dec - 20:15:30 10° SSW 20:31:49 29° SSE 20:44:46 10° ESE visible
22 Dec - 22:33:40 10° SW 22:51:41 62° SSE 23:02:24 10° ENE visible
